Weather History for Ely, NV

Change the Weather History Date:

Friday, September 16, 2011

  Actual Average Record
Temperature  
Mean Temperature 56 °F 57 °F  
Max Temperature 63 °F 76 °F 88 °F (1981)
Min Temperature 48 °F 38 °F 22 °F (1970)
Degree Days  
Heating Degree Days 9 8  
Month to date heating degree days 81 90  
Since 1 July heating degree days 85 154  
Cooling Degree Days 0 0  
Month to date cooling degree days 0 4  
Year to date cooling degree days 259 216  
Growing Degree Days 4 (Base 50)    
Moisture  
Dew Point 46 °F    
Average Humidity 70    
Maximum Humidity 89    
Minimum Humidity 51    
Precipitation  
Precipitation 1.03 in 0.02 in 1.03 in (2011)
Month to date precipitation 1.33 0.40  
Year to date precipitation 10.26 7.04  
Snow  
Snow 0.00 in 0.00 in 0.20 in (1977)
Month to date snowfall 0.0 0.0  
Since 1 July snowfall T 0.0  
Since 1 September snowfall 0.0 0.0  
Snow Depth 0.00 in    
Sea Level Pressure  
Sea Level Pressure 29.95 in    
Wind  
Wind Speed 5 mph (SW)    
Max Wind Speed 28 mph    
Max Gust Speed 32 mph    
Visibility 8 miles    
Events Rain , Thunderstorm    
T = Trace of Precipitation, MM = Missing Value Source: NWS Daily Summary

Daily Weather History Graph

Daily Weather History Graph

Search for Another Location

Airport:

Trip Planner

Search our weather history database for the weather conditions in past years. The results will help you decide how hot, cold, wet, or windy it might be!

Date:

Astronomy

Sep. 16, 2011 Rise Set
Actual Time 6:21 AM PDT 6:46 PM PDT
Civil Twilight 5:54 AM PDT 7:13 PM PDT
Nautical Twilight 5:22 AM PDT 7:44 PM PDT
Astronomical Twilight 4:50 AM PDT 8:17 PM PDT
Moon 8:41 PM PDT (9/16) 10:28 AM PDT (9/16)
Length of Visible Light 13h 18m
Length of Day
12h 25m
Waning Gibbous, 83% of the Moon is Illuminated
Sep 16
Waning Gibbous
Sep 20
Last Quarter
Sep 27
New
Oct 3
First Quarter
Oct 11
Full

Hourly Weather History & Observations

Time (PDT) Temp. Dew Point Humidity Pressure Visibility Wind Dir Wind Speed Gust Speed Precip Events Conditions
12:53 AM 55.9 °F 39.9 °F 55% 29.78 in 10.0 mi SSW 12.7 mph - N/A   Clear
1:53 AM 57.0 °F 39.0 °F 51% 29.76 in 10.0 mi South 10.4 mph - N/A   Clear
2:32 AM 57.2 °F 39.2 °F 51% 30.05 in 10.0 mi SSW 11.5 mph - N/A Thunderstorm Thunderstorm
2:48 AM 57.2 °F 39.2 °F 51% 30.05 in 10.0 mi SSW 10.4 mph 17.3 mph N/A   Overcast
2:53 AM 57.9 °F 39.0 °F 49% 29.76 in 10.0 mi SSW 10.4 mph - N/A   Overcast
3:41 AM 57.2 °F 39.2 °F 51% 30.07 in 10.0 mi West 3.5 mph - N/A Thunderstorm Thunderstorm
3:53 AM 55.9 °F 39.9 °F 55% 29.80 in 10.0 mi ESE 4.6 mph - N/A Thunderstorm Thunderstorm
4:02 AM 55.4 °F 42.8 °F 63% 30.07 in 10.0 mi ENE 4.6 mph - N/A   Overcast
4:53 AM 53.1 °F 46.9 °F 80% 29.82 in 7.0 mi NNW 5.8 mph - 0.01 in Rain Light Rain
5:53 AM 52.0 °F 48.0 °F 86% 29.86 in 10.0 mi WNW 8.1 mph - 0.02 in Rain Light Rain
6:25 AM 51.8 °F 48.2 °F 88% 30.11 in 5.0 mi East 10.4 mph - 0.10 in Rain , Thunderstorm Thunderstorms and Rain
6:53 AM 52.0 °F 46.9 °F 83% 29.88 in 10.0 mi Calm Calm - 0.12 in Rain Light Rain
7:53 AM 51.1 °F 48.9 °F 92% 29.91 in 9.0 mi West 11.5 mph - 0.02 in Rain Light Rain
8:53 AM 52.0 °F 48.9 °F 89% 29.93 in 10.0 mi WNW 3.5 mph - 0.01 in Rain Light Rain
9:02 AM 51.8 °F 50.0 °F 94% 30.13 in 9.0 mi WNW 6.9 mph - 0.01 in Rain Light Rain
9:53 AM 50.0 °F 46.0 °F 86% 29.99 in 8.0 mi West 8.1 mph - 0.05 in Rain Light Rain
10:53 AM 48.9 °F 45.0 °F 86% 30.02 in 4.0 mi East 5.8 mph - 0.10 in Rain Rain
11:17 AM 48.2 °F 46.4 °F 93% 30.18 in 2.5 mi SE 6.9 mph - 0.12 in Rain Rain
11:29 AM 48.2 °F 46.4 °F 93% 30.14 in 4.0 mi East 13.8 mph - 0.16 in Rain Rain
11:53 AM 53.1 °F 43.0 °F 69% 29.92 in 9.0 mi Calm Calm - 0.18 in Rain Light Rain
12:53 PM 52.0 °F 46.9 °F 83% 29.93 in 10.0 mi Calm Calm - 0.02 in   Overcast
1:53 PM 55.9 °F 50.0 °F 80% 29.87 in 10.0 mi NW 6.9 mph - N/A   Mostly Cloudy
2:53 PM 61.0 °F 50.0 °F 67% 29.81 in 10.0 mi Variable 3.5 mph - N/A   Clear
3:53 PM 59.0 °F 48.9 °F 69% 29.82 in 10.0 mi North 12.7 mph - N/A   Mostly Cloudy
4:09 PM 57.2 °F 48.2 °F 72% 30.04 in 10.0 mi North 12.7 mph - 0.00 in Thunderstorm Thunderstorm
4:53 PM 52.0 °F 46.0 °F 80% 29.92 in 4.0 mi Calm Calm - 0.11 in Rain , Thunderstorm Thunderstorms and Rain
5:28 PM 51.8 °F 46.4 °F 82% 30.05 in 2.5 mi ESE 20.7 mph 28.8 mph 0.16 in Rain , Thunderstorm Heavy Thunderstorms and Rain
5:37 PM 51.8 °F 48.2 °F 88% 30.01 in 7.0 mi East 24.2 mph 32.2 mph 0.18 in Rain , Thunderstorm Light Thunderstorms and Rain
5:53 PM 54.0 °F 45.0 °F 72% 29.85 in 10.0 mi SE 3.5 mph 24.2 mph 0.18 in Thunderstorm Thunderstorm
6:00 PM 53.6 °F 46.4 °F 77% 30.04 in 10.0 mi WSW 6.9 mph - N/A   Overcast
6:13 PM 51.8 °F 46.4 °F 82% 30.05 in 10.0 mi WSW 6.9 mph - N/A Thunderstorm Thunderstorm
6:29 PM 51.8 °F 48.2 °F 88% 30.08 in 10.0 mi West 10.4 mph 25.3 mph 0.00 in Rain Light Rain
6:53 PM 51.1 °F 48.0 °F 89% 29.92 in 3.0 mi Calm Calm - 0.04 in Rain Heavy Rain
7:53 PM 51.1 °F 48.0 °F 89% 29.94 in 7.0 mi WSW 8.1 mph - 0.09 in Rain Light Rain
8:53 PM 51.1 °F 46.9 °F 86% 29.92 in 10.0 mi Variable 3.5 mph - 0.08 in Rain Light Rain
9:53 PM 51.1 °F 46.9 °F 86% 29.91 in 10.0 mi South 4.6 mph - 0.00 in   Overcast
10:53 PM 50.0 °F 46.9 °F 89% 29.95 in 10.0 mi South 11.5 mph - N/A   Overcast
11:53 PM 50.0 °F 46.9 °F 89% 29.95 in 10.0 mi WSW 3.5 mph - N/A   Overcast